SAS295 ESSA-EETN

Flight info

Callsign SAS295
Flight time 0h 44m
Altitude 33000
Route BABAP P607 APTUG M851 NISIX DCT OSTOT DCT OSMUR
Aircraft A20N/M-SDE2E3FGHIRWXY/LB1

Departure

Time 2026-05-05 17:48
Airport Stockholm-Arlanda Airport (ESSA)

Arrival

Time 2026-05-05 18:32
Airport Lennart Meri Tallinn Airport (EETN)
Time Latitude Longitude Altitude Speed Heading
2026-05-05 17:25 59.65200 17.93025 111 ft 0 kts 71°
2026-05-05 17:38 59.65198 17.93010 111 ft 2 kts 71°
2026-05-05 17:38 59.65193 17.92982 109 ft 2 kts 71°
2026-05-05 17:39 59.65189 17.92954 109 ft 2 kts 89°
2026-05-05 17:39 59.65190 17.92924 109 ft 2 kts 107°
2026-05-05 17:39 59.65196 17.92897 110 ft 2 kts 126°
2026-05-05 17:39 59.65205 17.92874 107 ft 2 kts 123°
2026-05-05 17:40 59.65213 17.92849 108 ft 2 kts 118°
2026-05-05 17:40 59.65219 17.92822 108 ft 2 kts 112°
2026-05-05 17:40 59.65225 17.92795 108 ft 2 kts 112°
2026-05-05 17:40 59.65229 17.92775 109 ft 0 kts 112°
2026-05-05 17:42 59.65230 17.92776 109 ft 0 kts 108°
2026-05-05 17:42 59.65237 17.92784 110 ft 4 kts 31°
2026-05-05 17:43 59.65283 17.92786 111 ft 9 kts 349°
2026-05-05 17:43 59.65349 17.92719 111 ft 13 kts 331°
2026-05-05 17:43 59.65367 17.92569 109 ft 14 kts 236°
2026-05-05 17:43 59.65280 17.92431 109 ft 18 kts 207°
2026-05-05 17:44 59.65146 17.92358 111 ft 22 kts 188°
2026-05-05 17:44 59.64983 17.92303 111 ft 26 kts 189°
2026-05-05 17:44 59.64792 17.92236 111 ft 30 kts 192°
2026-05-05 17:44 59.64582 17.92159 111 ft 29 kts 190°
2026-05-05 17:45 59.64423 17.92100 110 ft 22 kts 189°
2026-05-05 17:45 59.64308 17.91936 112 ft 23 kts 223°
2026-05-05 17:45 59.64158 17.91838 114 ft 24 kts 192°
2026-05-05 17:45 59.63976 17.91772 108 ft 29 kts 191°
2026-05-05 17:46 59.63808 17.91654 107 ft 15 kts 216°
2026-05-05 17:46 59.63783 17.91615 107 ft 0 kts 219°
2026-05-05 17:46 59.63779 17.91608 107 ft 4 kts 219°
2026-05-05 17:46 59.63728 17.91464 107 ft 12 kts 263°
2026-05-05 17:47 59.63765 17.91344 110 ft 9 kts 356°
2026-05-05 17:47 59.63968 17.91408 109 ft 64 kts
2026-05-05 17:47 59.64613 17.91644 111 ft 123 kts 11°
2026-05-05 17:47 59.65554 17.91957 437 ft 138 kts 11°
2026-05-05 17:48 59.66503 17.92314 1109 ft 140 kts
2026-05-05 17:48 59.67460 17.92728 1753 ft 141 kts
2026-05-05 17:48 59.68432 17.93169 2311 ft 146 kts
2026-05-05 17:48 59.69446 17.93616 2869 ft 154 kts
2026-05-05 17:49 59.70541 17.93986 3437 ft 165 kts
2026-05-05 17:49 59.71729 17.94276 4052 ft 181 kts
2026-05-05 17:49 59.73028 17.94664 4656 ft 202 kts
2026-05-05 17:49 59.74474 17.95167 5367 ft 217 kts
2026-05-05 17:50 59.75963 17.95778 6480 ft 218 kts
2026-05-05 17:50 59.77439 17.96824 7303 ft 240 kts 31°
2026-05-05 17:50 59.78619 17.99383 7953 ft 268 kts 60°
2026-05-05 17:50 59.79118 18.03088 8630 ft 290 kts 89°
2026-05-05 17:51 59.78704 18.07021 9652 ft 295 kts 117°
2026-05-05 17:51 59.77471 18.10299 10477 ft 305 kts 142°
2026-05-05 17:51 59.75687 18.12834 10922 ft 327 kts 150°
2026-05-05 17:51 59.73785 18.15567 11477 ft 346 kts 144°
2026-05-05 17:52 59.71987 18.18826 12379 ft 355 kts 138°
2026-05-05 17:52 59.70318 18.22422 13250 ft 364 kts 134°
2026-05-05 17:52 59.68676 18.26327 14061 ft 372 kts 133°
2026-05-05 17:52 59.67037 18.30386 14742 ft 383 kts 133°
2026-05-05 17:53 59.65364 18.34562 15439 ft 390 kts 136°
2026-05-05 17:53 59.63380 18.38116 16146 ft 381 kts 156°
2026-05-05 17:53 59.61005 18.40167 16945 ft 364 kts 177°
2026-05-05 17:53 59.58567 18.40568 17826 ft 343 kts 196°
2026-05-05 17:54 59.56265 18.39762 18504 ft 339 kts 200°
2026-05-05 17:54 59.53823 18.39854 18758 ft 367 kts 181°
2026-05-05 17:54 59.51384 18.41607 18920 ft 394 kts 162°
2026-05-05 17:54 59.49120 18.44959 18826 ft 413 kts 147°
2026-05-05 17:55 59.47029 18.48864 18524 ft 413 kts 146°
2026-05-05 17:55 59.44952 18.52755 18214 ft 409 kts 147°
2026-05-05 17:55 59.42807 18.56305 17935 ft 401 kts 150°
2026-05-05 17:55 59.40704 18.59920 17852 ft 403 kts 148°
2026-05-05 17:56 59.38626 18.63522 17857 ft 404 kts 148°
2026-05-05 17:56 59.36515 18.67167 17852 ft 404 kts 148°
2026-05-05 17:56 59.34402 18.70806 17851 ft 404 kts 148°
2026-05-05 17:56 59.32287 18.74437 17857 ft 404 kts 148°
2026-05-05 17:57 59.30173 18.78057 17859 ft 404 kts 148°
2026-05-05 17:57 59.28142 18.81920 17858 ft 415 kts 137°
2026-05-05 17:57 59.26644 18.86873 17862 ft 432 kts 118°
2026-05-05 17:57 59.25889 18.92612 17864 ft 442 kts 99°
2026-05-05 17:58 59.25966 18.98632 17865 ft 446 kts 81°
2026-05-05 17:58 59.26879 19.04410 17869 ft 444 kts 62°
2026-05-05 17:58 59.28377 19.09675 17868 ft 443 kts 57°
2026-05-05 17:58 59.29813 19.15031 17868 ft 445 kts 63°
2026-05-05 17:59 59.30945 19.20597 17867 ft 447 kts 70°
2026-05-05 17:59 59.31846 19.26430 17868 ft 447 kts 74°
2026-05-05 17:59 59.32599 19.32354 17868 ft 447 kts 77°
2026-05-05 17:59 59.33284 19.38306 17865 ft 448 kts 77°
2026-05-05 18:00 59.33944 19.44261 17870 ft 448 kts 78°
2026-05-05 18:00 59.34603 19.50248 18026 ft 452 kts 78°
2026-05-05 18:00 59.35270 19.56297 18725 ft 454 kts 78°
2026-05-05 18:00 59.35942 19.62366 19483 ft 457 kts 78°
2026-05-05 18:01 59.36618 19.68489 20167 ft 462 kts 78°
2026-05-05 18:01 59.37292 19.74606 20841 ft 467 kts 78°
2026-05-05 18:01 59.37979 19.80863 21519 ft 472 kts 78°
2026-05-05 18:01 59.38669 19.87189 22212 ft 476 kts 78°
2026-05-05 18:02 59.39363 19.93577 22872 ft 481 kts 79°
2026-05-05 18:02 59.40062 20.00039 23496 ft 486 kts 79°
2026-05-05 18:02 59.40761 20.06546 24067 ft 489 kts 79°
2026-05-05 18:02 59.41463 20.13101 24646 ft 492 kts 79°
2026-05-05 18:03 59.42166 20.19709 25191 ft 496 kts 79°
2026-05-05 18:03 59.42870 20.26357 25758 ft 499 kts 79°
2026-05-05 18:03 59.43575 20.33050 26281 ft 502 kts 79°
2026-05-05 18:03 59.44281 20.39791 26787 ft 506 kts 79°
2026-05-05 18:04 59.44991 20.46598 27298 ft 509 kts 80°
2026-05-05 18:04 59.45700 20.53438 27784 ft 512 kts 80°
2026-05-05 18:04 59.46409 20.60319 28249 ft 515 kts 80°
2026-05-05 18:04 59.47121 20.67265 28590 ft 522 kts 80°
2026-05-05 18:05 59.47838 20.74314 28729 ft 531 kts 80°
2026-05-05 18:05 59.48567 20.81507 28947 ft 538 kts 80°
2026-05-05 18:05 59.49294 20.88726 29440 ft 538 kts 80°
2026-05-05 18:05 59.50018 20.95943 30000 ft 538 kts 80°
2026-05-05 18:06 59.50736 21.03154 30516 ft 536 kts 81°
2026-05-05 18:06 59.50978 21.05592 30689 ft 536 kts 81°
2026-05-05 18:06 59.52155 21.17536 31561 ft 534 kts 81°
2026-05-05 18:06 59.52858 21.24733 32053 ft 533 kts 81°
2026-05-05 18:07 59.53556 21.31919 32543 ft 532 kts 81°
2026-05-05 18:07 59.54249 21.39091 32809 ft 531 kts 81°
2026-05-05 18:07 59.54924 21.46124 32861 ft 530 kts 81°
2026-05-05 18:08 59.56282 21.60401 32863 ft 530 kts 81°
2026-05-05 18:08 59.57625 21.74701 32689 ft 530 kts 81°
2026-05-05 18:08 59.58292 21.81855 32421 ft 530 kts 81°
2026-05-05 18:09 59.58954 21.89008 32159 ft 530 kts 81°
2026-05-05 18:09 59.59614 21.96187 31897 ft 531 kts 81°
2026-05-05 18:09 59.60270 22.03370 31638 ft 531 kts 81°
2026-05-05 18:09 59.60922 22.10554 31380 ft 532 kts 81°
2026-05-05 18:10 59.61571 22.17742 31125 ft 532 kts 81°
2026-05-05 18:10 59.62218 22.24956 30869 ft 533 kts 82°
2026-05-05 18:10 59.62860 22.32172 30618 ft 534 kts 82°
2026-05-05 18:10 59.63499 22.39389 30370 ft 532 kts 82°
2026-05-05 18:11 59.64131 22.46580 30127 ft 530 kts 82°
2026-05-05 18:11 59.64750 22.53665 29873 ft 528 kts 82°
2026-05-05 18:11 59.65369 22.60794 29642 ft 521 kts 82°
2026-05-05 18:11 59.65967 22.67720 29393 ft 502 kts 82°
2026-05-05 18:12 59.66545 22.74456 28978 ft 492 kts 82°
2026-05-05 18:12 59.67109 22.81093 28644 ft 486 kts 82°
2026-05-05 18:12 59.67667 22.87709 28369 ft 488 kts 82°
2026-05-05 18:12 59.68223 22.94356 27871 ft 490 kts 82°
2026-05-05 18:13 59.68591 22.98760 27476 ft 489 kts 82°
2026-05-05 18:13 59.69319 23.07524 26810 ft 481 kts 83°
2026-05-05 18:13 59.69855 23.14011 26369 ft 474 kts 83°
2026-05-05 18:13 59.70381 23.20438 25818 ft 471 kts 83°
2026-05-05 18:14 59.70734 23.24765 25459 ft 469 kts 83°
2026-05-05 18:14 59.71242 23.31041 24940 ft 466 kts 83°
2026-05-05 18:14 59.71749 23.37347 24425 ft 462 kts 83°
2026-05-05 18:14 59.72252 23.43627 23918 ft 459 kts 83°
2026-05-05 18:15 59.72747 23.49852 23414 ft 456 kts 83°
2026-05-05 18:15 59.73236 23.56037 22850 ft 452 kts 83°
2026-05-05 18:15 59.73719 23.62183 22314 ft 448 kts 83°
2026-05-05 18:15 59.74190 23.68207 22098 ft 435 kts 83°
2026-05-05 18:16 59.74642 23.74015 21843 ft 420 kts 83°
2026-05-05 18:16 59.75081 23.79702 21477 ft 414 kts 83°
2026-05-05 18:16 59.75513 23.85344 21029 ft 412 kts 84°
2026-05-05 18:16 59.75938 23.90933 20594 ft 409 kts 84°
2026-05-05 18:17 59.76360 23.96517 20039 ft 409 kts 84°
2026-05-05 18:17 59.76779 24.02081 19410 ft 406 kts 84°
2026-05-05 18:17 59.77187 24.07521 18816 ft 402 kts 84°
2026-05-05 18:17 59.77595 24.12992 18217 ft 398 kts 84°
2026-05-05 18:18 59.77996 24.18402 17554 ft 394 kts 84°
2026-05-05 18:18 59.78391 24.23765 16865 ft 391 kts 84°
2026-05-05 18:18 59.78783 24.29106 16145 ft 389 kts 84°
2026-05-05 18:18 59.79172 24.34408 15497 ft 385 kts 84°
2026-05-05 18:19 59.79554 24.39649 14875 ft 381 kts 85°
2026-05-05 18:19 59.79517 24.44811 14250 ft 368 kts 108°
2026-05-05 18:19 59.78640 24.49402 13643 ft 347 kts 130°
2026-05-05 18:19 59.77305 24.53302 12963 ft 338 kts 135°
2026-05-05 18:20 59.75903 24.56927 12310 ft 333 kts 136°
2026-05-05 18:20 59.74478 24.60505 11702 ft 327 kts 136°
2026-05-05 18:20 59.73084 24.64016 11196 ft 320 kts 135°
2026-05-05 18:20 59.71726 24.67465 10685 ft 314 kts 135°
2026-05-05 18:21 59.70401 24.70854 10185 ft 308 kts 135°
2026-05-05 18:21 59.69102 24.74183 9690 ft 302 kts 134°
2026-05-05 18:21 59.67820 24.77467 9138 ft 300 kts 134°
2026-05-05 18:21 59.66545 24.80728 8590 ft 297 kts 133°
2026-05-05 18:22 59.65289 24.83939 8068 ft 293 kts 133°
2026-05-05 18:22 59.64053 24.87097 7539 ft 288 kts 132°
2026-05-05 18:22 59.62834 24.90206 7021 ft 284 kts 131°
2026-05-05 18:22 59.61635 24.93261 6554 ft 278 kts 131°
2026-05-05 18:23 59.60466 24.96236 6143 ft 270 kts 130°
2026-05-05 18:23 59.59343 24.99094 5746 ft 263 kts 130°
2026-05-05 18:23 59.58228 25.01934 5347 ft 262 kts 130°
2026-05-05 18:23 59.57111 25.04771 4953 ft 260 kts 130°
2026-05-05 18:24 59.56006 25.07574 4584 ft 258 kts 130°
2026-05-05 18:24 59.54902 25.10370 4261 ft 258 kts 130°
2026-05-05 18:24 59.53801 25.13161 3956 ft 257 kts 130°
2026-05-05 18:24 59.52707 25.15923 3631 ft 255 kts 130°
2026-05-05 18:25 59.51615 25.18669 3325 ft 254 kts 130°
2026-05-05 18:25 59.50897 25.20474 3080 ft 251 kts 130°
2026-05-05 18:25 59.49291 25.23610 2540 ft 236 kts 158°
2026-05-05 18:25 59.47768 25.24346 2267 ft 218 kts 179°
2026-05-05 18:26 59.46236 25.24612 2214 ft 221 kts 180°
2026-05-05 18:26 59.44759 25.24862 2210 ft 205 kts 180°
2026-05-05 18:26 59.43440 25.24597 2227 ft 192 kts 211°
2026-05-05 18:26 59.42478 25.22945 2224 ft 179 kts 239°
2026-05-05 18:27 59.41783 25.20878 2228 ft 179 kts 247°
2026-05-05 18:27 59.41390 25.18613 2219 ft 172 kts 262°
2026-05-05 18:27 59.41264 25.16360 2219 ft 165 kts 269°
2026-05-05 18:27 59.41241 25.14136 2223 ft 165 kts 271°
2026-05-05 18:28 59.41250 25.09629 2224 ft 165 kts 272°
2026-05-05 18:28 59.41256 25.07389 2228 ft 165 kts 272°
2026-05-05 18:28 59.41263 25.05132 2110 ft 165 kts 272°
2026-05-05 18:29 59.41269 25.02899 1876 ft 160 kts 271°
2026-05-05 18:29 59.41274 25.00835 1663 ft 143 kts 272°
2026-05-05 18:29 59.41279 24.98996 1469 ft 126 kts 272°
2026-05-05 18:29 59.41284 24.97387 1297 ft 112 kts 272°
2026-05-05 18:30 59.41289 24.95830 1138 ft 114 kts 271°
2026-05-05 18:30 59.41294 24.94265 964 ft 114 kts 271°
2026-05-05 18:30 59.41298 24.92714 800 ft 113 kts 270°
2026-05-05 18:30 59.41302 24.91159 639 ft 114 kts 270°
2026-05-05 18:31 59.41307 24.89635 479 ft 112 kts 270°
2026-05-05 18:31 59.41315 24.88098 337 ft 113 kts 270°
2026-05-05 18:31 59.41317 24.86555 216 ft 113 kts 269°
2026-05-05 18:31 59.41328 24.85023 151 ft 109 kts 268°
2026-05-05 18:32 59.41325 24.83803 146 ft 52 kts 268°
2026-05-05 18:32 59.41322 24.83193 143 ft 42 kts 274°
2026-05-05 18:32 59.41378 24.82650 137 ft 39 kts 294°
2026-05-05 18:32 59.41484 24.82226 139 ft 32 kts 292°
2026-05-05 18:33 59.41506 24.81818 139 ft 30 kts 269°
2026-05-05 18:33 59.41505 24.81420 139 ft 29 kts 271°
2026-05-05 18:33 59.41505 24.81026 140 ft 28 kts 269°
2026-05-05 18:33 59.41508 24.80648 140 ft 25 kts 270°
2026-05-05 18:34 59.41527 24.80310 139 ft 25 kts 273°
2026-05-05 18:34 59.41555 24.80086 140 ft 13 kts 317°
2026-05-05 18:34 59.41589 24.80064 141 ft 0 kts